DECAYED

STARLINK-34411, 65414 (Decayed)

Orbit data source: Space-Track

STARLINK-34411, 65414 was a payload satellite owned by SpaceX/Seattle (US) in LEO that was launched on Sun, 31 Aug 2025 UTC via an FALCON 9 launch vehicle from the Air Force Eastern Test Range (AFETR). Payload-class satellites include a variety of spacecraft equipped with specific instruments for various scientific and technological missions. These include communications satellites like Starlink; space stations such as the ISS; scientific satellites like the Hubble; Earth observation satellites from companies like Planet Labs, Umbra, and HawkEye 360; GPS; miniature CubeSats for education and research; and military/defense satellites.

Not visible in the next 10 days
Identifier
65414, 2025-192L
Orbit
Decayed
Country
Flag of USUS
Related business
Manufacturer
SpaceX/Seattle
Mission
Decayed Commercial Communications
Bus & Motor
STARLINK V2MO, Unknown motor
Mass
575 kg wet, ~530 kg dry
Launch date (UTC)
2025-08-31 (10 months ago)
Launch vehicle
FALCON 9
Launch site
Air Force Eastern Test Range (AFETR)
Object type
Payload
Rocket body
Debris
Shape & HBR
Box + 2 Pan, 17.7 m
Radar Cross Section
36.964 m², Large (>1 m²)

Expand to show TLE details & history
Last TLE update: 3 months ago

TLE from 3 months ago
0 STARLINK-34411
1 65414U 25192L   26091.02568076  .23216519  12195-4  23585-2 0  9997
2 65414  53.1218 105.3177 0006051 141.1317 219.0165 16.37131684 33129
Epoch: 2026-04-01T00:36Z
TLE epoch observation values (Epoch: 2026-04-01T00:36:58.817Z)
Latitude
-0.00007°
Longitude
-93.32186°
Altitude
177.461 km
Speed
7.799 km/s
True Right ascension
07h 01m 16s
True Declination
0° 00' 00"
Sunlit
Object was in daylight at epoch
Visualization orbit readout
Latitude
Unknown
Longitude
Unknown
Altitude
Unknown
Speed
Unknown
Apparent Right ascension
Unknown
Apparent Declination
Unknown
Sunlit
N/A
Visualization observer readout
Local Sidereal Time
07:14:48
Azimuth
Unknown
Elevation
Unknown
Doppler factor
Unknown
Orbital elements
Apogee altitude
177.683 km
Perigee altitude
169.754 km
Semi-major axis
6,551.855 km
Eccentricity
0.00061
Inclination
53.1218°
RAAN
105.3177°
Arg. of periapsis
141.1317°
True anomaly
218.97287°
Mean anomaly
219.0165°
Eccentric anomaly
218.99468°
Mean motion
4.09258 °/min
Orbital period
87.96 mins
BSTAR
0.0023585
Loading maneuver chart data...
Computing Atmospheric mass density...
Loading historical data...
Loading historical data...
Loading historical data...
Loading historical data...
Loading historical data...
Loading historical data...
Loading historical data...

Documentation

Showing up to 5 results
|